Time,TemperatureF,DewpointF,PressureIn,WindDirection,WindDirectionDegrees,WindSpeedMPH,WindSpeedGustMPH,Humidity,HourlyPrecipIn,Conditions,Clouds,dailyrainin,SoftwareType,DateUTC
2015-02-01 00:09:00,31.0,24.9,30.06,ENE,68,2.7,2.7,78,0.00,,,0.00,WUHU216HW,2015-02-01 07:09:00,
2015-02-01 00:39:00,30.6,24.6,30.05,ESE,113,2.0,2.0,78,0.00,,,0.00,WUHU216HW,2015-02-01 07:39:00,
2015-02-01 01:39:00,29.5,22.9,30.06,SSE,158,0.0,0.0,76,0.00,,,0.00,WUHU216HW,2015-02-01 08:39:00,
2015-02-01 02:09:00,28.8,22.5,30.05,SE,135,1.1,1.1,77,0.00,,,0.00,WUHU216HW,2015-02-01 09:09:00,
2015-02-01 03:09:00,27.5,21.5,30.05,SSE,158,0.4,0.4,78,0.00,,,0.00,WUHU216HW,2015-02-01 10:09:00,
2015-02-01 04:09:00,26.1,20.4,30.05,South,180,1.1,1.1,79,0.00,,,0.00,WUHU216HW,2015-02-01 11:09:00,
2015-02-01 04:39:00,25.7,20.1,30.05,South,180,2.5,2.5,79,0.00,,,0.00,WUHU216HW,2015-02-01 11:39:00,
2015-02-01 05:39:00,25.6,20.3,30.04,South,180,0.9,0.9,80,0.00,,,0.00,WUHU216HW,2015-02-01 12:39:00,
2015-02-01 06:09:00,25.6,20.3,30.04,SSE,158,0.4,0.4,80,0.00,,,0.00,WUHU216HW,2015-02-01 13:09:00,
2015-02-01 06:39:00,25.6,20.5,30.03,SE,135,0.7,0.7,81,0.00,,,0.00,WUHU216HW,2015-02-01 13:39:00,
2015-02-01 07:09:00,25.0,19.8,30.03,West,270,0.4,0.4,80,0.00,,,0.00,WUHU216HW,2015-02-01 14:09:00,
2015-02-01 07:39:00,24.8,19.6,30.02,South,180,2.2,2.2,80,0.00,,,0.00,WUHU216HW,2015-02-01 14:39:00,
2015-02-01 08:09:00,24.8,19.6,30.02,SE,135,1.1,1.1,80,0.00,,,0.00,WUHU216HW,2015-02-01 15:09:00,
2015-02-01 08:39:00,25.0,19.8,30.02,SSE,158,0.7,0.7,80,0.00,,,0.00,WUHU216HW,2015-02-01 15:39:00,
2015-02-01 09:09:00,25.9,20.9,30.01,SE,135,0.2,0.2,81,0.00,,,0.00,WUHU216HW,2015-02-01 16:09:00,
2015-02-01 09:39:00,27.2,22.1,30.00,SSW,203,0.7,0.7,81,0.00,,,0.00,WUHU216HW,2015-02-01 16:39:00,
2015-02-01 10:09:00,27.9,22.8,30.00,NNE,23,1.1,1.1,81,0.00,,,0.00,WUHU216HW,2015-02-01 17:09:00,
2015-02-01 11:09:00,29.5,23.5,29.99,North,0,0.2,0.2,78,0.00,,,0.00,WUHU216HW,2015-02-01 18:09:00,
2015-02-01 11:39:00,30.2,23.9,29.98,NNE,23,1.1,1.1,77,0.00,,,0.00,WUHU216HW,2015-02-01 18:39:00,
2015-02-01 12:09:00,31.0,24.3,29.97,NNW,338,0.4,0.4,76,0.00,,,0.00,WUHU216HW,2015-02-01 19:09:00,
2015-02-01 12:39:00,29.9,23.9,29.95,North,0,0.9,0.9,78,0.00,,,0.00,WUHU216HW,2015-02-01 19:39:00,
2015-02-01 13:09:00,29.9,24.1,29.94,North,0,1.3,1.3,79,0.00,,,0.00,WUHU216HW,2015-02-01 20:09:00,
2015-02-01 13:39:00,30.2,24.8,29.91,WNW,293,0.9,0.9,80,0.00,,,0.00,WUHU216HW,2015-02-01 20:39:00,
2015-02-01 14:09:00,30.2,25.1,29.89,North,0,1.1,1.1,81,0.00,,,0.00,WUHU216HW,2015-02-01 21:09:00,
2015-02-01 14:39:00,30.2,25.4,29.88,NNW,338,0.4,0.4,82,0.00,,,0.00,WUHU216HW,2015-02-01 21:39:00,
2015-02-01 15:09:00,31.0,25.8,29.87,North,0,2.7,2.7,81,0.00,,,0.00,WUHU216HW,2015-02-01 22:09:00,
2015-02-01 15:39:00,30.4,25.3,29.86,North,0,2.0,2.0,81,0.01,,,0.00,WUHU216HW,2015-02-01 22:39:00,
2015-02-01 17:09:00,29.5,25.0,29.84,North,0,2.5,2.5,83,0.00,,,0.01,WUHU216HW,2015-02-02 00:09:00,